COSMOS 2360

Satellite information

Favourite Embed

Satellite Type and Status

PAYLOADIN ORBIT

Key statistics

Satellite COSMOS 2360 at a glance.

Uptime

9895

Days in orbit

Revolutions

≈ 14.1

Per day

Orbit

LEO

Low Earth Orbit

Inclination

70.8

Latest

Satellite identification and parameters

Extended collection of information and parameters for COSMOS 2360.

Object identification

Identified? True

Debris? False

Object name: COSMOS 2360

International designator: 1998-045A

Object number (NORAD): 25406

Object ID (CCSDS): 25406

Country: COMMONWEALTH OF INDEPENDENT STATES (CIS)

Current information (Y/N): Y

RCS size: LARGE

Orbital parameters

Period: 101.944 minutes

Inclination: 70.766 deg

SMA: 7228.846 km

Apoapsis: 854.855 km

Periapsis: 846.567 km

RAAN: 174.8157 deg

Eccentricy: 0.0005733

Argument of periapsis: 42.3149 deg

Mean anomaly: 317.8412 deg

Mean motion: 14.12535338 rev/day

Mean motion (dot): -0.00000218 rev/day2

B* drag term: -0.000091431025 1/REarth

Two-line elements (TLE)

Creation date: Aug. 30, 2025, 3:38 a.m.

Reference frame: TEME

Reference center: EARTH

Epoch: Aug. 29, 2025, 10:58 p.m. UTC

TLE line 0: 0 COSMOS 2360

TLE line 1: 1 25406U 98045A 25241.95758825 -.00000218 00000-0 -91431-4 0 9991

TLE line 2: 2 25406 70.7660 174.8157 0005733 42.3149 317.8412 14.12535338396918

Live tracking on map

Real-time ground track for satellite COSMOS 2360.

In-orbit conjunctions

A list of the most updated potential collisions computed for object COSMOS 2360.

Target Orbit TCA Probability of collision Miss distance Type
FENGYUN 1C DEB SSO 2025-01-13 18:44:01 0.0001920425 309.0 (m) DEBRIS
FENGYUN 1C DEB SSO 2025-01-12 23:05:56 0.0002297959 190.0 (m) DEBRIS
COSMOS 2251 DEB LEO 2024-11-18 12:26:43 0.0001659443 329.0 (m) DEBRIS
NOAA 16 DEB SSO 2024-11-10 02:10:25 0.004212673 89.0 (m) DEBRIS
FENGYUN 1C DEB SSO 2024-10-28 03:08:51 0.0003450304 508.0 (m) DEBRIS

Associated space launch

Second generation ELING satellite

COSMOS 2360 was lifted into orbit during the mission ‘Zenit-2 | Tselina-2 20’, on board a Zenit-2 space rocket.

The launch took place on July 28, 1998, 9:15 a.m. from 45/1.

For more information about the launch, click the button.

Launch to space Zenit-2 | Tselina-2 20
Zenit-2 | Tselina-2 20

Agency: N/A

Status: Launch Successful

Launch date: July 28, 1998, 9:15 a.m. UTC

Rocket: Zenit-2

Launch pad: 45/1

Location: Baikonur Cosmodrome, Republic of Kazakhstan

...

Latest news about this satellite

There are no fresh news available about this satellite. Check back as we update our databases every day.


Newsletter sign-up

Weekly statistics, charts and insights to help you stay on top of the space industry.